Location: Unspecified
(49.2170°N, 0.0000°E)
Time: 15:19:37
(UTC+00:00)

Vanguard 3 - Pass Details

Date: 26 June 2019
Orbit: 508 x 3263 km, 33.3° (Epoch: 21 August)

Event Time Altitude Azimuth Distance (km) Brightness Sun altitude
Rises 09:12:28 0° 218° (SW) 7,061 11.8 47.9°
Reaches altitude 10° 09:18:42 10° 208° (SSW) 5,768 11.6 48.8°
Maximum altitude 09:30:52 26° 162° (SSE) 3,748 11.4 50.6°
Drops below altitude 10° 09:39:30 10° 112° (ESE) 4,010 11.5 51.9°
Sets 09:42:50 0° 99° (E) 4,612 11.5 52.3°
